sat.trackr.live / text

‹ back to catalog

CHUANGXIN-3 (CX-3)

NORAD 39209 · 2013-037B

PAYLOAD ACTIVE UNKNOWN

§ Identity

Operator
Country
PRC
Launch date
2013-07-19
Launch site
TAISC
Launch vehicle
Mass (kg)
RCS (m²)
1.34

External: N2YO · Heavens-Above · Gunter

§ Orbital elements

Epoch: 2026-09-09T22:42:36.636768Z

Period
97.64 min
Inclination
98.0852°
Eccentricity
0.0003269
Mean motion
14.74740309 rev/d
Perigee alt
643.7 km
Apogee alt
648.3 km
Semi-major
7,024.1 km
B*
9.9622e-5
RAAN
259.0281°
Arg perigee
204.5585°
Mean anomaly
155.5468°
Rev number
70,484

§ Raw data

CHUANGXIN-3 (CX-3)1 39209U 13037B   26252.94625737  .00000615  00000+0  99622-4 0  99902 39209  98.0852 259.0281 0003269 204.5585 155.5468 14.74740309704849

JSON: /api/v1/satellites/39209 · /tle

For live sub-satellite position, see the globe view (requires WebGL).

§ Visibility from observer

Set your observer location to see the next 7 days of passes ≥ 10°. The values pass through the URL so the page stays shareable.

No JS? Fill the form by hand. The geolocation button needs JavaScript.